Theta_e
318 316 316 317 318 319 318 318 318 317 316 315 315 316 317 318 318 317 315 314 313 312 310 307 305 305 306 302 300 299 297 297 296 294 294 295 294 293 292 291 292 292 292 291
319 316 316 316 317 316 318 318 318 318 317 317 315 314 316 317 317 316 315 313 312 311 309 307 305 305 302 300 298 297 297 296 294 293 293 294 293 292 292 293 292 292 292 291
317 313 314 319 318 317 317 318 318 318 318 316 315 315 315 316 316 315 314 313 312 310 308 306 304 301 300 298 297 296 295 293 293 293 293 293 292 292 292 292 292 292 291 291
319 312 324 314 312 313 317 317 316 316 316 314 315 315 315 315 315 315 314 312 311 309 306 305 301 300 298 297 296 295 292 293 293 293 292 292 292 292 292 291 291 291 290 290
324 315 314 313 311 311 313 313 315 314 315 314 314 314 315 314 314 314 313 312 310 308 304 300 301 298 297 297 295 292 293 293 293 293 292 292 292 292 291 291 291 291 290 289
314 328 330 314 312 313 313 315 312 314 315 314 314 318 314 312 313 313 312 311 307 303 301 299 297 299 297 295 293 293 291 292 292 292 292 292 291 291 290 290 290 289 290 288
318 324 318 313 310 312 315 314 313 314 314 314 316 314 313 312 312 312 310 306 303 302 298 297 299 298 295 294 293 292 290 291 291 291 291 291 291 290 290 289 289 289 288 287
315 323 323 310 313 317 316 314 312 314 314 314 314 312 311 311 310 307 304 301 299 296 297 300 297 294 293 292 292 290 290 291 290 291 290 290 290 290 290 289 288 288 287 286
317 318 313 311 314 314 313 313 313 313 313 313 313 311 309 308 305 301 299 297 297 299 302 297 294 291 290 292 290 289 289 289 291 291 290 290 290 289 289 289 288 287 287 286
314 314 313 312 312 311 311 311 312 312 312 313 313 312 307 303 300 299 298 298 300 299 295 293 291 290 290 289 289 289 289 290 291 290 290 289 289 289 288 288 287 286 286 285
314 314 312 312 311 311 312 313 312 312 312 312 312 310 304 301 299 298 299 300 298 295 293 290 290 290 289 289 289 289 289 290 290 290 290 289 289 288 288 287 286 286 285 284
316 311 311 312 312 312 312 312 312 312 309 308 308 304 301 299 300 300 298 297 294 291 291 290 290 289 289 289 289 289 289 289 290 290 289 289 289 288 287 286 285 285 284 283
313 312 312 312 311 310 310 307 306 305 303 302 300 297 296 295 297 296 295 293 290 290 290 290 289 289 289 289 289 289 289 289 289 288 288 288 288 287 287 287 286 285 284 283
309 311 312 308 306 303 302 300 301 299 297 296 296 296 297 295 294 293 292 293 291 290 290 289 289 289 289 289 289 289 289 289 288 287 287 287 287 287 287 286 286 286 285 284
304 307 305 302 301 300 298 298 298 297 297 297 296 296 295 293 293 293 291 290 290 290 289 289 289 289 289 290 290 290 289 289 288 287 287 287 286 286 286 286 285 285 285 284
302 302 301 299 297 296 297 298 297 296 296 294 294 294 293 293 292 290 290 290 290 289 289 290 290 290 290 290 290 290 289 289 288 287 287 286 286 286 286 286 286 285 285 284
302 298 297 297 297 298 297 297 295 295 294 294 294 293 291 290 290 290 290 290 290 289 289 290 290 290 290 290 291 290 290 290 289 287 287 286 285 285 286 286 286 285 285 284
300 298 298 298 298 296 295 294 294 294 294 291 291 290 290 290 290 290 290 290 290 290 290 290 290 290 290 291 291 290 290 289 288 288 287 287 286 286 285 286 286 285 285 284
297 297 296 296 296 295 293 291 291 290 291 291 291 291 291 290 291 291 290 290 290 290 290 290 290 290 290 291 291 290 290 289 288 286 287 287 286 286 285 285 286 286 285 285
294 292 291 291 291 291 291 291 291 291 291 291 291 291 291 290 290 290 290 290 290 290 291 290 290 290 290 289 289 289 289 288 286 285 285 286 286 285 285 285 285 285 286 286
292 291 291 291 291 291 291 291 291 291 291 291 291 290 290 290 291 291 291 290 291 290 290 290 290 290 289 288 288 288 287 286 285 285 285 285 285 285 285 285 285 285 285 285
291 291 291 291 291 291 291 291 291 291 291 291 290 289 288 287 286 285 285 285 286 286 286 286 287 288 288 288 288 287 286 285 285 285 285 285 285 285 285 285 284 284 284 284
292 292 292 292 292 291 291 289 287 286 285 285 284 284 283 283 284 284 284 285 284 284 283 284 285 286 286 287 287 286 285 284 284 283 283 283 283 283 284 284 284 284 284 284
292 292 291 290 288 287 287 286 285 284 283 282 281 281 280 280 281 281 281 281 282 282 283 284 285 285 285 285 285 285 284 284 283 282 282 281 281 281 282 282 282 282 283 284
291 289 287 286 286 285 284 284 283 282 281 280 279 279 278 279 279 278 279 280 280 281 282 283 285 285 285 284 284 283 283 282 281 281 280 280 280 280 281 281 282 282 282 282
287 286 285 285 284 283 282 281 280 279 278 278 278 277 277 277 277 277 278 278 279 280 280 281 281 281 281 281 281 281 280 280 280 279 279 279 279 279 279 280 281 281 282 282
286 285 283 282 281 280 279 278 278 278 277 277 276 276 276 276 276 276 277 277 277 277 277 278 278 278 278 278 278 278 278 278 278 278 278 278 278 278 278 279 279 279 280 281
Wind_Speed
2 0 3 5 8 13 16 14 8 12 11 11 7 9 11 13 17 19 21 21 21 21 19 17 16 13 11 10 10 10 9 9 10 13 14 13 17 19 18 18 14 12 11 9
3 3 3 7 10 11 15 16 15 19 20 16 11 9 11 15 18 21 22 22 22 21 19 17 16 12 12 11 11 9 9 11 11 13 14 15 19 19 16 14 14 13 12 11
2 2 3 6 16 18 13 13 15 14 16 3 7 11 13 15 18 20 22 23 23 21 18 16 14 13 12 10 9 10 14 13 13 13 16 15 16 15 15 15 14 13 11 11
1 1 3 1 1 3 13 17 15 17 13 9 5 4 6 11 16 18 20 22 21 19 17 15 15 12 11 8 11 14 13 11 11 13 13 14 14 14 15 14 13 13 13 11
2 4 6 12 3 3 4 6 5 11 11 6 4 2 10 11 13 16 18 19 18 16 15 16 11 12 8 11 13 13 9 9 10 12 14 14 14 14 14 14 13 14 12 11
3 3 3 3 3 1 2 5 7 4 4 9 8 4 3 5 11 12 15 16 16 16 16 15 12 8 11 8 10 9 11 11 12 13 14 14 14 15 15 14 14 14 12 12
3 4 6 1 2 3 3 3 7 4 7 11 7 6 3 6 11 13 16 17 18 18 17 12 8 11 10 9 9 11 14 14 14 14 15 14 14 15 16 14 13 13 13 12
3 3 4 5 6 3 4 6 6 5 6 12 7 4 4 8 13 18 20 19 18 17 16 8 10 11 8 8 10 13 14 15 15 14 14 14 14 16 15 14 13 12 13 15
6 1 3 7 6 4 6 11 10 8 7 10 10 8 7 10 14 16 16 17 17 13 9 9 12 10 9 9 13 14 16 17 14 13 13 13 16 16 15 13 13 12 12 14
1 2 7 9 10 11 11 15 14 14 13 11 12 10 10 13 16 17 16 14 11 9 8 9 8 10 11 12 13 15 17 15 12 13 13 16 16 15 13 13 12 12 13 14
4 10 7 2 5 7 13 12 12 10 10 10 9 9 12 15 16 15 16 11 7 7 7 8 9 10 11 13 15 17 15 14 13 12 15 16 15 15 14 13 14 13 14 15
2 7 5 9 12 13 12 12 11 8 6 4 4 11 15 17 18 15 13 6 5 7 9 11 10 11 13 14 15 16 16 15 12 14 15 16 15 15 17 19 18 17 15 15
6 14 11 10 6 11 8 8 6 7 8 11 12 15 17 16 13 13 6 4 6 10 10 10 10 11 12 13 15 16 17 18 19 19 19 18 18 18 17 16 19 19 17 15
8 10 1 11 7 10 10 12 11 15 16 19 22 20 18 15 9 4 4 6 10 12 11 11 11 11 12 14 15 16 17 18 17 16 18 18 18 20 21 17 17 18 19 18
10 7 6 8 10 12 12 12 19 23 22 20 16 15 14 10 5 5 9 12 13 13 12 12 12 12 14 16 18 19 18 15 16 20 21 23 24 22 22 22 19 18 16 18
8 11 12 13 14 15 19 21 23 19 18 16 12 8 6 4 6 11 13 14 14 14 14 15 16 15 17 19 21 21 18 19 21 19 19 22 23 22 20 22 19 16 16 17
7 11 14 18 20 20 20 18 15 12 9 5 3 4 7 8 10 12 13 14 16 17 18 20 21 20 23 25 24 22 19 19 21 23 20 21 21 21 20 22 22 18 18 18
19 20 20 20 17 15 12 8 5 2 4 6 7 7 9 11 13 14 15 16 17 20 20 21 23 26 29 29 28 26 25 26 26 26 27 25 23 20 21 23 23 22 20 19
16 15 12 9 7 5 4 5 6 6 6 8 9 10 12 12 14 15 17 19 20 23 24 24 25 27 29 30 30 30 29 28 28 27 26 25 26 24 23 22 23 24 22 22
9 8 7 6 6 5 5 6 6 7 8 9 10 11 13 14 16 19 22 26 25 26 27 28 27 28 28 27 25 28 28 28 25 24 24 22 23 24 24 22 23 23 24 26
8 7 6 5 4 4 5 6 7 7 9 11 13 16 19 21 23 25 28 27 26 25 27 28 29 28 25 24 24 27 29 23 21 23 23 23 23 23 23 23 22 21 22 23
6 5 4 4 3 3 4 5 6 9 12 15 18 22 24 26 28 29 27 26 25 26 30 29 30 28 27 27 27 27 21 19 21 23 23 22 22 21 22 23 23 23 24 25
4 2 2 2 2 3 5 9 13 17 19 20 21 23 25 27 22 25 31 25 30 34 32 30 29 26 24 26 27 25 20 22 23 21 21 21 22 23 24 24 24 25 24 23
2 2 1 3 5 7 11 15 18 20 21 22 24 26 26 29 29 21 25 30 29 32 33 30 26 26 25 24 23 22 20 22 20 19 18 19 19 19 20 20 20 23 22 24
2 1 3 6 9 12 16 19 20 22 24 25 25 24 23 20 24 32 30 30 31 29 30 30 28 27 26 21 20 19 17 15 14 14 15 16 17 17 18 19 19 21 21 23
1 3 7 10 12 14 17 21 22 23 25 24 24 25 27 27 25 26 27 27 25 26 26 26 25 21 17 15 14 12 11 11 12 13 14 16 16 16 17 18 18 17 15 15
4 6 9 11 14 16 19 21 23 24 24 26 29 29 27 24 23 22 23 23 22 22 20 19 18 16 13 12 11 10 10 11 12 13 15 16 16 16 16 17 17 16 15 14
Wind_Direction
234 164 234 252 230 210 217 234 224 268 254 270 248 231 231 217 204 199 196 193 193 190 188 183 183 187 231 209 207 230 258 277 281 291 287 286 299 309 310 311 310 309 307 311
231 216 265 266 248 238 234 247 252 262 266 276 257 246 214 207 203 204 203 199 196 193 192 188 190 199 195 203 220 252 271 287 285 287 283 290 301 307 306 308 307 301 296 295
236 353 277 277 242 227 226 227 237 247 258 212 204 223 218 213 209 208 205 201 198 196 194 191 195 190 204 204 240 273 288 290 287 281 287 295 300 304 305 301 295 288 286 282
120 222 222 315 206 284 248 255 249 259 266 271 270 218 236 224 217 213 207 203 200 196 191 190 186 193 197 220 262 283 286 281 279 283 289 293 296 304 304 300 295 282 281 273
177 218 314 280 191 221 210 291 336 270 274 245 224 246 245 220 214 215 208 202 200 195 185 180 198 200 217 257 274 283 275 272 274 283 289 290 293 299 306 302 295 280 276 270
149 225 252 53 69 185 230 281 8 298 226 195 185 243 341 208 212 200 194 192 184 181 182 183 177 230 252 251 270 264 280 282 282 290 291 288 288 300 301 300 293 286 273 263
177 241 278 291 238 157 243 20 343 274 208 191 202 261 264 194 188 189 185 178 182 188 176 170 209 247 254 257 267 278 289 287 291 295 293 292 289 295 296 294 285 275 272 269
142 205 271 161 144 234 8 332 324 293 246 224 256 275 228 186 176 174 170 171 169 162 165 190 238 252 262 270 275 288 288 291 298 296 297 297 294 295 293 291 284 274 275 279
217 227 110 193 277 299 312 301 305 303 291 259 263 241 213 185 172 169 162 156 154 164 165 205 244 273 285 274 284 290 297 300 294 289 294 297 296 291 287 285 279 271 269 280
249 168 249 259 277 289 293 288 296 283 281 270 261 245 204 172 162 156 156 150 163 139 210 236 267 285 287 283 295 300 301 299 291 287 290 296 297 289 280 276 271 267 273 275
248 285 304 286 318 327 318 311 302 300 292 280 262 211 183 162 156 150 159 149 142 209 244 272 288 290 292 299 302 304 301 298 295 294 291 294 296 289 273 270 266 275 274 275
276 349 316 310 329 326 320 318 314 306 307 321 177 168 161 156 155 151 124 122 229 273 290 286 296 299 301 307 313 313 308 307 298 292 290 290 291 290 292 288 279 283 291 288
294 310 307 317 359 359 358 6 31 69 82 97 105 124 128 122 123 106 105 225 272 283 282 289 297 298 307 319 321 318 316 313 307 298 293 291 292 285 286 286 286 288 285 289
3 348 108 17 20 36 59 75 89 96 101 106 111 112 108 86 71 50 359 306 286 283 286 290 291 302 314 318 320 320 320 316 309 299 297 292 295 290 282 284 280 277 281 283
13 37 78 80 76 77 86 97 99 94 95 94 91 80 69 62 39 329 294 287 283 284 287 286 292 303 307 311 312 313 308 301 295 300 300 301 300 297 282 280 285 276 271 272
74 77 85 87 87 89 97 95 92 85 76 69 62 50 28 348 298 279 288 292 288 292 290 286 288 296 300 305 306 301 292 293 300 302 300 298 293 297 282 273 275 276 274 273
104 88 98 99 107 106 96 89 83 80 75 60 12 304 289 300 306 305 302 296 294 296 294 289 292 291 296 297 299 294 284 282 282 294 294 300 305 299 285 278 273 271 272 275
101 104 104 102 102 95 96 94 78 21 331 325 332 326 319 317 316 313 310 302 302 303 304 305 300 294 291 290 290 289 286 293 289 291 295 285 296 299 293 280 278 275 272 273
101 105 105 100 89 75 45 17 6 356 346 337 331 327 324 322 318 317 315 310 307 306 309 305 299 294 294 291 289 291 292 297 294 293 289 277 286 292 295 288 278 277 278 276
98 91 86 76 63 54 37 20 5 357 348 342 335 330 321 315 310 307 303 299 299 301 305 303 300 300 302 299 291 290 292 295 298 299 297 291 287 291 293 289 284 281 281 278
98 88 75 59 39 24 12 3 357 350 340 329 319 312 308 305 303 303 304 303 304 306 303 299 300 300 300 299 299 292 296 291 295 300 291 287 287 288 290 292 290 288 286 285
100 89 72 57 43 36 30 7 344 330 323 317 315 314 315 316 314 312 312 310 309 304 307 302 299 297 296 286 287 287 288 289 298 301 296 291 292 293 292 291 291 289 288 287
99 70 55 81 53 8 339 334 337 335 334 333 332 330 327 324 323 319 317 316 311 314 317 312 310 305 297 293 287 282 283 292 299 293 287 286 286 283 283 284 287 291 290 295
175 147 84 18 354 339 336 336 339 339 336 334 331 329 327 325 321 321 312 313 311 310 311 312 308 309 303 294 279 276 281 294 300 302 305 305 303 302 297 293 290 277 283 288
135 48 0 353 347 344 340 338 339 335 332 331 332 333 331 327 321 325 325 321 318 319 310 309 303 295 298 283 275 276 286 297 304 310 315 318 320 321 319 314 309 299 295 279
84 359 347 342 340 338 337 338 338 336 333 332 333 333 331 330 328 326 326 325 324 316 317 315 309 302 294 287 283 285 292 298 304 310 316 320 323 326 329 329 325 320 312 299
339 340 342 339 337 339 339 338 336 334 334 333 330 333 333 332 332 335 333 340 345 344 340 334 328 322 315 308 303 302 303 306 310 313 314 315 317 320 324 328 331 332 326 312